Weather History for KISN - December, 2014

Change the Weather History Date:

Saturday, December 20, 2014

  Actual Average Record
Temperature  
Mean Temperature 26 °F 12 °F  
Max Temperature 42 °F 23 °F 55 °F (1941)
Min Temperature 10 °F 2 °F -33 °F (1916)
Degree Days  
Heating Degree Days 39 53  
Month to date heating degree days 858 995  
Since 1 July heating degree days 3051 3157  
Cooling Degree Days 0 0  
Month to date cooling degree days 0 0  
Year to date cooling degree days 425 456  
Moisture  
Dew Point 17 °F    
Average Humidity 78    
Maximum Humidity 92    
Minimum Humidity 64    
Precipitation  
Precipitation T in 0.02 in 0.58 in (2010)
Month to date precipitation 0.01 0.39  
Year to date precipitation 10.66 14.14  
Sea Level Pressure  
Sea Level Pressure 29.89 in    
Wind  
Wind Speed 3 mph (SW)    
Max Wind Speed 13 mph    
Max Gust Speed 17 mph    
Visibility 7 miles    
Events Fog    
T = Trace of Precipitation, MM = Missing Value Source: NWS Daily Summary

Daily Weather History Graph

Daily Weather History Graph

Search for Another Location

Airport or City:

Trip Planner

Search our weather history database for the weather conditions in past years. The results will help you decide how hot, cold, wet, or windy it might be!

Date:

Astronomy

Dec. 20, 2014 Rise Set
Actual Time 8:41 AM CST 5:02 PM CST
Civil Twilight 8:05 AM CST 5:39 PM CST
Nautical Twilight 7:25 AM CST 6:19 PM CST
Astronomical Twilight 6:47 AM CST 6:57 PM CST
Moon 6:53 AM CST (12/20) 4:21 PM CST (12/20)
Length of Visible Light 9h 34m
Length of Day
8h 20m
Waning Crescent, 2% of the Moon is Illuminated
Dec 20
Waning Crescent
Dec 21
New
Dec 28
First Quarter
Jan 4
Full
Jan 13
Last Quarter

Hourly Weather History & Observations

Time (CST) Temp. Windchill Dew Point Humidity Pressure Visibility Wind Dir Wind Speed Gust Speed Precip Events Conditions
12:15 AM 12.9 °F - 10.0 °F 88% 29.90 in 1.0 mi Calm Calm - N/A   Mist
12:22 AM 14.0 °F - 10.9 °F 88% 29.89 in 0.5 mi Calm Calm - N/A Fog Light Freezing Fog
12:30 AM 12.9 °F - 12.0 °F 96% 29.90 in 0.2 mi Calm Calm - N/A Fog Light Freezing Fog
12:41 AM 12.9 °F - 10.9 °F 92% 29.89 in 0.5 mi Calm Calm - N/A Fog Light Freezing Fog
12:52 AM 12.9 °F - 10.0 °F 88% 30.00 in 0.5 mi Calm Calm - N/A Fog Light Freezing Fog
1:09 AM 12.9 °F - 12.0 °F 96% 29.89 in 0.2 mi Calm Calm - N/A Fog Light Freezing Fog
1:52 AM 12.9 °F - 10.9 °F 92% 29.99 in 0.2 mi Calm Calm - N/A Fog Light Freezing Fog
2:26 AM 12.0 °F - 10.0 °F 92% 29.87 in 0.2 mi Calm Calm - N/A Fog Light Freezing Fog
2:52 AM 10.9 °F - 9.0 °F 92% 29.98 in 0.2 mi Calm Calm - N/A Fog Light Freezing Fog
3:11 AM 10.9 °F - 8.1 °F 88% 29.88 in 0.8 mi Calm Calm - N/A   Mist
3:15 AM 10.0 °F 3.6 °F 7.0 °F 87% 29.87 in 2.0 mi NW 3.5 mph - N/A   Overcast
3:20 AM 10.0 °F - 7.0 °F 87% 29.87 in 9.0 mi Calm Calm - N/A   Mostly Cloudy
3:30 AM 12.0 °F - 8.1 °F 84% 29.87 in 7.0 mi Calm Calm - N/A   Scattered Clouds
3:40 AM 10.0 °F - 7.0 °F 87% 29.87 in 7.0 mi Calm Calm - N/A   Mostly Cloudy
3:45 AM 10.0 °F - 7.0 °F 87% 29.87 in 8.0 mi Calm Calm - N/A   Scattered Clouds
3:52 AM 10.9 °F - 8.1 °F 88% 29.98 in 8.0 mi Calm Calm - N/A   Mostly Cloudy
4:52 AM 14.0 °F - 10.9 °F 88% 29.96 in 9.0 mi Calm Calm - N/A   Mostly Cloudy
5:52 AM 16.0 °F - 14.0 °F 92% 29.95 in 10.0 mi Calm Calm - N/A   Overcast
6:52 AM 19.0 °F - 17.1 °F 92% 29.94 in 10.0 mi Calm Calm - N/A   Overcast
7:52 AM 21.2 °F - 19.4 °F 93% 29.84 in 10.0 mi Calm Calm - N/A   Overcast
8:52 AM 21.9 °F 15.7 °F 19.0 °F 89% 29.93 in 10.0 mi SSW 4.6 mph - N/A   Mostly Cloudy
9:52 AM 21.9 °F 17.2 °F 19.9 °F 92% 29.94 in 10.0 mi SSW 3.5 mph - N/A   Clear
10:52 AM 26.1 °F 19.4 °F 23.0 °F 88% 29.94 in 10.0 mi South 5.8 mph - N/A   Clear
11:52 AM 28.9 °F 25.2 °F 26.1 °F 89% 29.93 in 10.0 mi SSW 3.5 mph - N/A   Clear
12:52 PM 32.0 °F 24.8 °F 28.9 °F 88% 29.89 in 10.0 mi SSW 8.1 mph - N/A   Clear
1:52 PM 36.0 °F 29.6 °F 30.9 °F 82% 29.87 in 10.0 mi SW 8.1 mph - N/A   Clear
2:52 PM 39.0 °F 34.8 °F 30.0 °F 70% 29.86 in 10.0 mi SSW 5.8 mph - N/A   Clear
3:52 PM 39.9 °F 34.5 °F 28.9 °F 65% 29.86 in 10.0 mi SW 8.1 mph - N/A   Mostly Cloudy
4:52 PM 37.9 °F 32.7 °F 30.0 °F 73% 29.85 in 10.0 mi WSW 6.9 mph - 0.00 in   Overcast
5:52 PM 34.0 °F 28.0 °F 28.0 °F 79% 29.85 in 10.0 mi West 6.9 mph - N/A   Partly Cloudy
6:52 PM 30.9 °F 22.8 °F 26.1 °F 82% 29.84 in 10.0 mi WSW 9.2 mph - N/A   Clear
7:52 PM 30.9 °F 24.3 °F 24.1 °F 76% 29.84 in 10.0 mi SW 6.9 mph - N/A   Clear
8:52 PM 28.9 °F 23.9 °F 24.1 °F 82% 29.83 in 10.0 mi SE 4.6 mph - N/A   Clear
9:52 PM 26.1 °F - 21.0 °F 81% 29.82 in 10.0 mi Calm Calm - N/A   Clear
10:52 PM 23.0 °F - 19.9 °F 88% 29.81 in 10.0 mi Calm Calm - N/A   Clear
11:52 PM 21.9 °F - 19.0 °F 89% 29.79 in 10.0 mi Calm Calm - N/A   Clear